Location: Ku?niki
(51.4449°N, 17.8974°E)
Time: 14:21:52
(UTC+00:00)

H-2A R/B - Pass Details

Date: 18 September 2020
Orbit: 734 x 836 km, 98.2° (Epoch: 22 October)

Event Time Altitude Azimuth Distance (km) Brightness Sun altitude
Rises 17:34:17 0° 159° (SSE) 3,164 4.9 -6.9°
Reaches altitude 10° 17:36:32 10° 158° (SSE) 2,253 4.1 -7.2°
Maximum altitude 17:41:29 79° 73° (ENE) 775 2.0 -8.0°
Drops below altitude 10° 17:46:35 10° 347° (NNW) 2,323 4.9 -8.8°
Sets 17:48:56 0° 347° (NNW) 3,270 5.7 -9.1°
